Temp
17 17 17 17 18 17 18 19 17 19 20 19 19 21 23 22 22 23 22 21 22 22 22 22 21 20 20 19 19 18 17 18 18 18 18 17 17 18 17 17 17 16 16 16 16 16 16 16 15
17 16 16 16 18 19 21 17 19 20 20 19 20 20 21 23 21 21 21 22 22 22 22 22 21 20 19 18 18 17 17 17 18 18 18 18 17 17 17 17 16 16 16 16 16 16 16 15 15
16 16 17 18 16 19 21 18 21 19 19 19 21 21 21 22 21 22 23 22 22 22 21 21 21 20 18 18 17 17 17 17 17 17 17 17 17 17 17 17 16 16 16 16 16 15 15 15 15
15 16 15 16 17 17 19 19 18 19 19 20 20 22 21 22 22 22 22 22 22 21 21 20 20 19 18 17 17 17 17 17 17 17 17 17 17 17 16 16 16 16 16 16 15 14 14 14 14
16 15 16 15 15 16 15 17 17 19 19 19 20 21 21 23 23 22 22 22 22 21 20 20 19 18 18 17 16 17 17 17 16 16 16 16 17 15 15 15 15 15 15 15 14 14 14 14 14
15 13 15 16 15 16 18 17 18 19 18 20 19 19 21 22 23 23 22 22 21 21 20 20 19 18 17 17 16 16 16 16 16 16 16 16 15 15 14 14 14 14 14 14 14 14 14 14 14
15 15 16 14 15 16 19 17 18 20 20 20 19 20 20 21 22 22 22 21 21 21 20 19 19 18 17 16 16 16 15 15 15 15 15 14 13 14 13 13 13 14 14 14 14 13 13 13 13
14 15 13 14 16 17 18 17 18 18 20 20 19 20 21 20 20 21 21 21 21 21 19 18 18 18 17 16 15 15 14 14 14 14 14 14 14 15 15 14 12 12 14 13 13 13 13 13 13
14 15 14 14 15 17 17 18 18 18 18 19 19 19 20 20 20 20 21 20 20 20 19 18 18 17 17 16 15 14 14 14 13 13 13 14 14 15 15 15 13 12 13 12 12 13 13 12 12
14 13 15 14 16 17 17 16 18 18 18 18 18 19 19 19 19 19 20 20 21 21 19 19 17 17 17 16 15 14 14 13 13 13 13 13 13 14 14 14 13 12 12 12 13 13 12 11 11
12 14 13 14 14 15 16 16 16 17 17 18 18 19 19 18 18 19 20 20 19 20 19 18 18 17 17 16 15 14 14 13 14 13 12 12 13 13 12 12 13 12 11 11 12 12 12 11 11
13 12 14 14 15 15 16 16 16 16 17 17 17 17 18 18 19 19 19 20 20 19 18 18 18 17 16 15 14 13 13 13 13 13 12 12 13 13 13 12 13 11 12 11 12 12 11 11 12
12 13 13 13 14 14 14 15 15 16 16 17 17 17 18 19 19 20 19 19 19 19 17 17 17 17 16 15 14 12 12 12 12 13 12 12 12 12 12 12 12 11 11 12 12 11 11 11 11
12 13 13 13 14 14 14 15 15 16 16 16 17 17 18 19 20 19 19 19 19 18 17 17 17 16 16 15 13 12 11 12 12 12 12 12 12 11 11 12 11 11 11 11 12 12 11 11 11
12 12 14 14 14 14 14 14 14 16 16 16 17 18 19 20 19 20 21 21 20 19 17 17 17 16 15 15 13 12 11 11 11 11 11 11 11 11 11 11 11 11 11 11 11 11 11 11 11
13 12 13 14 14 14 14 15 17 17 17 17 17 18 19 19 20 21 21 21 21 19 17 16 17 16 15 14 13 11 11 11 11 11 11 11 11 11 11 11 11 11 11 11 11 11 11 11 11
10 12 11 13 15 15 15 15 16 15 15 16 16 16 18 19 20 21 22 22 21 19 18 16 17 16 15 14 12 11 11 11 11 11 11 11 11 11 10 11 11 11 11 11 10 10 11 11 11
11 10 11 12 14 14 14 14 15 15 15 15 15 16 17 18 20 21 21 21 20 18 18 16 16 15 14 13 12 10 11 11 11 11 11 10 10 11 10 11 11 11 10 10 10 10 11 11 11
11 11 11 11 12 12 13 14 15 15 15 16 16 16 17 19 20 20 21 20 19 18 17 17 16 15 14 13 11 10 10 10 10 10 10 11 11 10 10 10 10 11 10 10 10 10 11 10 10
10 10 10 11 12 13 13 13 14 15 15 16 16 17 18 19 20 21 21 21 20 18 18 17 16 15 15 13 11 11 10 10 10 10 10 10 10 10 10 10 10 11 10 10 10 10 10 10 10
10 10 10 10 12 12 12 13 15 16 16 16 16 16 17 17 19 20 21 21 20 18 18 17 17 15 14 13 10 10 9 10 10 10 10 10 10 10 10 10 10 10 10 11 11 10 10 10 10
9 11 11 10 10 11 12 12 14 15 16 16 17 17 17 19 19 20 21 20 21 18 17 17 16 15 14 12 10 10 9 9 10 10 10 10 10 10 10 10 10 10 11 11 10 10 10 10 10
10 11 11 11 10 10 11 11 13 14 15 16 17 17 17 19 19 20 21 19 18 16 17 17 16 15 14 12 12 10 9 9 10 10 11 10 10 9 9 10 10 10 10 10 10 10 10 10 10
11 10 10 10 10 9 12 11 13 14 16 16 17 17 16 16 18 18 17 16 16 16 16 16 16 14 14 12 11 11 9 9 9 9 10 10 10 10 10 10 10 10 10 10 10 11 10 10 10
10 10 10 10 9 11 13 11 13 14 13 13 13 13 12 13 16 16 16 17 17 17 16 15 15 14 14 13 12 10 9 9 9 10 10 10 10 10 9 9 10 10 10 10 10 11 11 10 10
9 10 10 10 11 11 12 12 14 13 12 12 11 10 10 11 14 15 16 16 17 16 16 14 13 13 14 13 12 10 9 9 9 9 9 9 9 9 9 9 9 10 9 9 9 10 10 10 10
9 9 10 8 10 9 13 14 13 13 13 12 11 10 9 9 12 14 15 14 13 13 10 13 13 14 14 12 12 11 9 9 9 10 9 8 8 9 9 9 9 9 9 9 8 9 10 9 9
10 10 8 8 9 10 13 13 12 11 11 11 10 9 8 8 10 13 12 12 11 10 10 10 13 14 13 12 12 11 10 9 9 9 8 9 8 8 8 9 9 9 9 9 8 9 8 8 8
9 8 8 8 9 10 10 12 11 10 9 9 8 7 6 6 8 9 10 10 10 10 10 10 11 13 12 11 12 11 10 10 10 10 9 9 8 8 8 9 9 9 9 9 9 8 8 8 8
10 9 9 8 9 9 9 11 11 10 9 8 7 6 5 5 6 9 9 9 9 9 9 9 11 12 12 12 12 11 10 9 9 9 8 8 8 8 8 8 8 8 9 9 8 8 8 8 8
Height
1500 1502 1504 1505 1510 1508 1506 1498 1497 1492 1490 1488 1488 1487 1484 1484 1485 1490 1481 1484 1487 1490 1492 1493 1495 1497 1497 1499 1501 1504 1507 1509 1511 1513 1515 1517 1520 1523 1525 1527 1529 1533 1536 1538 1540 1541 1542 1544 1546
1499 1501 1503 1503 1506 1503 1492 1496 1492 1487 1487 1486 1486 1485 1485 1481 1481 1481 1483 1484 1487 1489 1491 1493 1494 1495 1497 1498 1500 1503 1507 1509 1512 1513 1514 1516 1519 1521 1524 1527 1529 1532 1535 1538 1541 1542 1543 1545 1547
1498 1501 1502 1499 1502 1495 1490 1490 1484 1486 1485 1484 1484 1482 1482 1479 1479 1480 1482 1483 1485 1488 1490 1491 1493 1494 1495 1498 1500 1502 1507 1510 1511 1512 1513 1516 1519 1521 1523 1523 1529 1532 1535 1538 1540 1541 1543 1545 1548
1497 1501 1503 1498 1496 1492 1486 1486 1487 1486 1484 1484 1484 1482 1480 1478 1478 1479 1481 1482 1484 1487 1488 1489 1490 1493 1494 1496 1499 1500 1504 1508 1510 1511 1513 1516 1518 1519 1525 1526 1529 1533 1535 1537 1539 1541 1544 1546 1549
1495 1497 1498 1498 1496 1492 1489 1486 1487 1484 1485 1483 1483 1480 1478 1475 1477 1478 1480 1482 1483 1485 1487 1488 1489 1491 1493 1495 1497 1499 1502 1506 1508 1511 1513 1515 1517 1521 1525 1529 1528 1533 1535 1537 1538 1539 1544 1547 1550
1493 1495 1497 1491 1493 1489 1483 1484 1485 1482 1482 1481 1481 1480 1475 1472 1475 1476 1478 1481 1482 1484 1485 1486 1487 1489 1491 1493 1496 1498 1500 1504 1506 1508 1509 1512 1516 1520 1523 1529 1531 1534 1535 1537 1538 1541 1543 1547 1550
1488 1492 1487 1491 1492 1490 1479 1481 1482 1479 1478 1479 1479 1477 1473 1471 1473 1474 1476 1479 1480 1481 1483 1485 1485 1487 1489 1491 1493 1496 1499 1501 1504 1506 1509 1511 1508 1514 1519 1527 1531 1535 1536 1540 1538 1541 1544 1547 1551
1486 1488 1491 1489 1486 1483 1480 1479 1477 1477 1476 1476 1476 1474 1472 1472 1471 1471 1473 1475 1478 1479 1480 1482 1483 1485 1487 1489 1490 1494 1495 1498 1500 1503 1504 1508 1511 1514 1518 1521 1531 1536 1534 1540 1540 1541 1545 1547 1551
1483 1485 1481 1483 1485 1477 1478 1477 1475 1475 1475 1474 1474 1472 1473 1471 1469 1469 1470 1471 1474 1474 1476 1479 1481 1482 1484 1486 1488 1492 1493 1494 1496 1499 1502 1505 1509 1510 1515 1518 1524 1532 1534 1536 1539 1540 1544 1549 1552
1480 1479 1474 1476 1476 1475 1474 1474 1474 1475 1474 1471 1470 1470 1470 1468 1467 1467 1467 1467 1468 1470 1472 1475 1477 1479 1481 1483 1485 1488 1490 1491 1493 1496 1500 1502 1506 1510 1515 1517 1519 1526 1530 1532 1537 1540 1545 1549 1552
1475 1469 1473 1473 1472 1473 1471 1469 1470 1471 1471 1470 1467 1467 1466 1465 1465 1465 1465 1465 1467 1468 1469 1472 1474 1476 1478 1481 1482 1484 1485 1487 1490 1493 1496 1499 1503 1508 1511 1514 1517 1523 1526 1529 1537 1540 1544 1548 1551
1473 1469 1468 1468 1470 1468 1465 1463 1463 1465 1467 1465 1464 1463 1462 1460 1460 1460 1460 1460 1463 1466 1467 1468 1470 1473 1476 1478 1479 1480 1482 1484 1486 1489 1494 1497 1500 1504 1508 1511 1514 1516 1519 1526 1534 1538 1542 1547 1551
1470 1467 1466 1465 1465 1461 1460 1457 1456 1456 1459 1456 1457 1457 1457 1454 1453 1454 1454 1456 1458 1461 1464 1466 1466 1470 1472 1474 1475 1476 1479 1481 1484 1487 1490 1493 1497 1501 1505 1508 1511 1515 1517 1524 1532 1536 1541 1546 1550
1465 1465 1463 1461 1458 1456 1453 1449 1455 1447 1450 1449 1449 1450 1450 1448 1446 1447 1446 1447 1450 1455 1459 1462 1463 1466 1468 1469 1470 1473 1476 1478 1481 1483 1486 1490 1493 1497 1501 1504 1507 1512 1517 1523 1530 1535 1540 1545 1549
1463 1465 1460 1454 1451 1449 1446 1445 1442 1440 1440 1442 1440 1441 1442 1441 1440 1439 1439 1441 1443 1449 1455 1457 1459 1462 1464 1466 1466 1469 1472 1475 1477 1480 1483 1486 1489 1493 1497 1502 1505 1509 1514 1520 1528 1534 1540 1544 1547
1462 1461 1459 1448 1448 1444 1445 1440 1437 1436 1434 1434 1433 1433 1434 1434 1433 1433 1434 1436 1438 1444 1450 1454 1455 1457 1460 1462 1463 1466 1468 1471 1474 1477 1480 1482 1485 1489 1493 1496 1502 1506 1512 1518 1525 1532 1537 1542 1547
1462 1457 1459 1451 1444 1442 1440 1432 1433 1432 1431 1429 1428 1428 1427 1427 1427 1427 1428 1431 1434 1439 1444 1448 1451 1454 1457 1458 1460 1463 1466 1468 1470 1473 1476 1479 1482 1485 1490 1492 1498 1503 1509 1514 1522 1529 1535 1539 1545
1455 1459 1457 1451 1443 1440 1436 1427 1430 1428 1427 1426 1426 1424 1423 1422 1420 1422 1424 1426 1429 1433 1438 1444 1446 1450 1453 1455 1458 1460 1463 1464 1466 1469 1472 1475 1477 1480 1484 1485 1492 1499 1505 1510 1518 1526 1532 1538 1544
1453 1454 1454 1451 1446 1443 1432 1424 1422 1425 1423 1421 1419 1419 1416 1415 1416 1417 1418 1420 1423 1427 1432 1436 1441 1445 1447 1450 1454 1457 1458 1460 1462 1464 1467 1469 1471 1474 1478 1477 1486 1492 1500 1505 1514 1522 1528 1535 1542
1453 1455 1451 1445 1441 1439 1429 1418 1419 1418 1415 1414 1412 1411 1410 1409 1409 1410 1412 1413 1415 1419 1426 1430 1435 1440 1443 1446 1450 1453 1456 1458 1460 1461 1462 1462 1464 1467 1469 1473 1478 1486 1494 1501 1509 1517 1524 1532 1538
1451 1451 1446 1445 1439 1436 1428 1408 1401 1404 1404 1405 1404 1404 1402 1400 1400 1402 1404 1405 1408 1412 1417 1424 1429 1435 1439 1443 1448 1451 1453 1456 1457 1458 1459 1459 1458 1458 1463 1468 1475 1481 1489 1497 1505 1512 1519 1525 1534
1448 1439 1441 1441 1444 1442 1432 1419 1405 1400 1397 1396 1395 1395 1394 1391 1391 1393 1395 1397 1399 1404 1412 1418 1425 1430 1435 1440 1444 1448 1450 1453 1455 1456 1458 1456 1457 1458 1461 1465 1472 1479 1488 1495 1502 1509 1516 1522 1529
1440 1438 1439 1439 1441 1442 1437 1437 1404 1397 1392 1387 1385 1386 1385 1384 1383 1383 1385 1389 1393 1400 1407 1413 1420 1427 1432 1436 1441 1445 1448 1451 1453 1455 1457 1459 1459 1461 1462 1465 1472 1479 1486 1493 1500 1506 1512 1519 1526
1437 1437 1437 1438 1439 1441 1425 1429 1406 1395 1388 1384 1382 1383 1383 1380 1377 1376 1379 1383 1388 1396 1401 1409 1416 1423 1428 1434 1438 1441 1446 1448 1451 1454 1456 1458 1460 1463 1465 1469 1471 1477 1485 1491 1498 1504 1509 1514 1521
1436 1437 1435 1437 1438 1426 1417 1425 1402 1396 1399 1394 1387 1384 1382 1377 1374 1373 1374 1377 1383 1389 1396 1406 1413 1420 1424 1430 1435 1439 1443 1446 1449 1452 1456 1458 1460 1462 1465 1469 1473 1477 1483 1490 1496 1502 1506 1511 1517
1435 1433 1431 1433 1426 1424 1415 1411 1399 1402 1400 1396 1390 1385 1383 1378 1374 1372 1373 1376 1380 1384 1391 1401 1409 1417 1421 1427 1433 1437 1441 1444 1447 1450 1454 1457 1460 1462 1465 1469 1472 1477 1481 1484 1491 1499 1504 1509 1514
1434 1435 1433 1438 1429 1431 1408 1398 1399 1396 1393 1391 1390 1387 1384 1377 1371 1369 1371 1374 1379 1384 1393 1398 1405 1414 1419 1425 1430 1434 1438 1441 1444 1447 1451 1454 1456 1459 1462 1464 1467 1471 1478 1484 1487 1492 1498 1504 1510
1430 1433 1436 1437 1431 1420 1402 1402 1399 1400 1397 1396 1394 1392 1389 1383 1375 1369 1370 1374 1379 1385 1391 1396 1404 1412 1418 1423 1428 1432 1436 1439 1442 1445 1448 1451 1454 1456 1459 1462 1465 1468 1474 1478 1484 1489 1494 1498 1502
1432 1434 1434 1433 1429 1419 1416 1402 1404 1406 1407 1404 1403 1399 1395 1388 1380 1377 1376 1377 1380 1386 1390 1395 1403 1410 1416 1421 1426 1430 1433 1437 1440 1443 1447 1450 1452 1455 1458 1462 1464 1468 1472 1476 1480 1484 1490 1493 1499
1423 1428 1427 1428 1424 1423 1422 1408 1404 1406 1408 1409 1407 1404 1399 1393 1386 1381 1380 1379 1383 1388 1392 1396 1402 1409 1415 1420 1425 1428 1431 1434 1437 1441 1445 1448 1451 1453 1456 1460 1463 1467 1470 1473 1478 1482 1484 1488 1491
Wind_Speed
11 10 9 5 3 0 3 5 3 4 3 3 4 5 8 2 5 2 9 19 18 15 12 11 11 13 16 18 18 20 20 21 24 25 24 25 27 25 25 24 25 24 23 22 21 20 19 18 19
12 12 9 3 3 5 5 3 7 6 3 10 6 5 4 4 6 5 20 20 18 14 11 10 10 13 18 20 20 20 21 22 23 24 25 26 28 28 26 26 26 26 24 22 21 19 18 18 20
13 14 5 3 3 11 6 6 8 3 11 3 1 4 3 3 7 13 15 21 17 14 11 10 11 14 19 20 20 20 21 22 23 25 26 28 26 26 28 29 27 26 23 21 21 20 19 21 24
13 7 2 4 11 6 7 1 3 3 3 2 3 6 6 6 2 12 17 20 15 13 11 9 11 14 17 20 21 20 21 23 24 25 25 25 27 30 28 28 27 25 22 20 21 21 21 24 23
16 4 3 4 7 5 5 8 5 9 7 5 5 7 6 13 11 11 17 19 16 12 11 9 10 13 16 19 21 21 22 23 23 23 24 25 28 28 27 26 27 24 21 21 22 22 24 25 22
6 3 4 11 10 6 10 11 7 11 5 10 2 7 9 15 14 14 18 19 16 12 11 10 10 12 15 18 21 22 22 22 23 24 26 28 24 25 24 22 21 20 20 23 23 24 26 25 23
5 3 8 7 5 4 14 5 9 13 13 6 6 4 6 15 15 18 19 20 17 15 14 13 12 12 15 17 19 21 21 21 24 24 24 24 24 27 23 19 17 18 19 23 25 25 25 25 23
6 2 4 6 9 11 7 5 6 10 8 3 3 3 5 9 17 20 21 22 19 17 16 14 14 14 16 18 19 21 22 22 24 26 29 28 27 25 27 26 17 19 20 25 26 25 25 25 23
9 5 10 8 8 6 5 4 7 7 7 4 5 6 14 15 12 22 25 26 23 22 19 16 15 15 15 18 19 21 22 25 25 26 28 28 31 31 34 29 27 22 26 29 27 26 25 26 24
6 6 9 7 7 10 10 8 12 4 10 16 16 14 11 18 9 24 28 30 28 25 23 18 16 15 14 17 19 23 23 25 27 28 27 27 28 30 20 20 27 29 31 28 27 26 27 27 26
6 9 5 6 9 9 8 15 14 13 13 22 21 17 20 22 14 18 30 31 30 26 23 19 16 16 14 17 20 22 24 24 27 27 28 27 30 24 20 25 26 32 31 29 27 28 30 30 27
6 9 11 6 16 18 18 27 24 21 17 28 28 30 27 30 26 22 26 34 33 27 24 21 17 17 15 18 20 22 23 24 25 24 25 33 36 29 20 28 25 33 33 31 31 32 32 29 25
6 6 10 17 18 22 22 22 21 17 19 33 31 31 28 29 29 26 26 33 37 30 28 24 18 18 18 19 20 21 21 25 26 25 26 37 36 31 23 29 32 33 26 29 34 36 32 29 24
3 8 9 9 17 18 20 25 15 20 19 27 29 29 30 28 28 27 25 30 36 34 29 27 21 19 18 18 18 20 21 21 21 22 29 33 35 33 29 31 36 35 32 31 37 35 33 28 23
5 7 10 12 13 9 14 12 15 25 25 23 27 26 28 29 28 26 22 26 33 35 31 30 22 20 17 17 16 21 22 22 23 23 25 29 35 31 31 34 37 35 34 31 35 34 32 29 27
4 4 7 2 1 7 6 9 9 13 16 19 21 23 28 27 26 25 23 25 30 33 33 30 24 21 17 16 17 20 23 23 23 23 25 24 27 31 31 35 40 37 35 32 34 36 33 29 28
2 6 6 5 6 10 8 9 6 15 12 16 19 20 19 21 21 20 20 25 29 31 31 31 25 22 17 17 17 17 21 23 24 25 26 25 27 35 35 41 38 39 37 35 39 37 35 32 30
5 5 4 4 6 13 19 21 12 17 13 15 18 19 18 20 23 19 18 23 28 32 29 29 25 23 19 19 19 20 19 21 23 25 29 30 31 33 38 40 39 38 39 37 41 39 35 31 30
9 11 13 10 8 14 17 22 20 18 17 18 20 21 21 24 25 23 21 24 26 31 32 31 29 25 21 21 22 23 22 21 20 21 22 24 32 39 41 40 44 36 35 40 42 41 38 33 33
10 12 13 10 8 9 14 23 20 18 21 25 26 23 24 28 30 29 25 25 27 31 35 33 30 26 22 22 21 21 19 17 15 16 15 22 25 31 40 41 41 40 37 41 44 45 40 35 35
9 10 9 10 13 12 17 20 18 16 22 25 23 23 24 26 31 29 29 29 28 32 38 35 33 27 23 21 19 19 16 15 14 16 14 15 18 31 34 35 41 41 39 44 42 47 45 40 36
7 6 9 7 6 4 6 10 11 16 17 16 21 22 23 26 27 30 32 32 33 34 37 36 33 27 23 22 21 20 18 16 17 14 11 6 7 12 30 38 38 32 33 41 40 47 44 43 40
5 2 4 6 8 7 9 7 5 6 12 15 16 22 23 23 22 28 32 31 29 32 37 38 33 28 23 23 19 19 17 16 17 17 14 9 12 15 14 34 39 30 30 36 37 45 43 42 40
3 2 6 5 4 4 11 12 7 6 5 9 10 12 11 15 15 15 20 23 26 29 37 38 33 28 23 21 17 16 16 17 20 19 18 17 18 19 18 23 27 28 26 26 31 37 41 42 41
3 1 2 1 3 4 1 9 12 15 12 11 10 16 18 16 11 11 18 23 27 31 36 36 34 30 24 19 15 15 16 15 19 19 20 19 17 20 24 24 31 35 36 28 31 37 38 42 43
6 5 3 3 2 2 1 6 1 8 11 15 15 17 18 19 14 13 17 22 27 30 36 37 35 31 24 19 15 14 16 14 16 16 16 16 17 19 19 17 33 36 37 37 35 34 34 39 43
3 5 1 2 3 4 4 4 10 13 17 19 21 23 26 27 19 13 16 20 22 25 30 35 36 29 22 19 15 16 17 17 15 14 14 13 15 18 16 20 22 41 41 39 43 47 44 38 40
3 4 3 3 3 4 3 3 4 14 18 19 19 21 24 25 19 8 10 18 19 22 27 33 31 27 21 17 13 15 17 16 14 11 8 9 10 11 13 14 23 32 38 42 42 45 47 48 43
4 2 3 1 3 2 3 1 4 9 11 13 15 20 21 21 18 7 5 12 15 22 26 29 27 26 21 17 12 11 15 16 14 12 9 7 8 12 14 14 15 17 21 26 39 44 42 47 46
5 6 5 2 2 3 1 4 3 6 10 12 13 17 19 18 17 13 9 14 18 21 24 26 27 23 20 16 12 11 10 14 14 13 13 12 10 10 15 16 16 17 17 24 25 31 35 39 46
Wind_Direction
206 194 173 164 222 252 242 235 273 227 230 210 184 178 205 161 172 204 160 159 162 165 167 178 195 204 210 211 207 204 203 201 196 191 194 193 191 196 190 184 179 176 175 172 169 172 173 169 163
192 181 168 151 223 222 239 234 229 229 264 300 237 219 197 229 197 165 150 156 159 165 171 183 194 207 213 211 204 199 200 199 198 194 193 195 195 194 189 187 183 179 178 178 178 182 181 173 161
184 176 170 206 201 226 244 214 207 168 313 252 244 226 247 222 200 174 167 167 168 173 180 190 202 211 211 211 208 201 198 198 200 198 197 198 198 195 193 189 188 184 183 187 189 190 186 170 162
172 175 72 234 224 245 232 46 190 334 311 23 11 300 283 247 192 180 176 177 175 179 180 189 206 215 216 213 211 207 203 201 202 203 204 203 199 198 196 190 190 189 190 191 186 184 181 170 169
169 160 217 237 239 270 236 250 253 292 304 272 311 277 252 262 234 198 187 185 184 181 184 194 206 215 217 214 215 213 209 209 207 207 205 199 206 197 200 197 190 191 193 190 188 183 180 173 176
156 144 219 239 236 243 265 242 264 268 251 301 269 269 259 251 233 202 194 190 186 190 194 200 206 209 213 214 217 217 216 214 214 209 205 206 203 200 200 196 189 194 195 190 190 185 178 176 177
174 175 240 245 251 245 258 217 225 257 270 266 286 232 272 225 214 200 195 194 195 198 204 205 207 208 208 212 215 221 218 220 216 213 212 208 197 196 178 192 199 202 198 199 191 188 183 180 180
179 193 205 221 235 250 259 214 246 200 247 275 319 245 321 353 211 199 197 200 202 211 212 208 208 207 212 210 209 217 217 219 220 213 211 212 201 197 210 195 211 206 203 207 199 189 185 181 181
174 216 235 227 213 248 258 252 243 244 267 254 293 266 310 336 245 204 202 205 208 215 216 215 209 208 211 213 213 215 214 220 223 220 215 210 205 213 217 219 203 207 209 206 197 186 184 181 179
193 226 233 202 225 259 268 246 261 285 291 286 294 288 289 331 298 220 210 213 215 219 219 220 212 211 210 216 217 221 220 221 223 224 220 215 216 209 211 221 215 196 206 204 192 187 181 179 178
194 237 214 208 232 250 260 262 262 262 263 269 284 289 295 303 293 254 230 226 225 220 220 220 217 214 218 223 221 219 226 228 231 226 223 218 190 192 210 216 213 205 202 194 194 183 180 184 185
236 231 224 232 245 256 253 268 262 254 256 272 277 286 290 290 285 271 251 239 234 229 224 222 220 222 226 228 226 224 228 233 227 230 220 198 195 209 227 211 209 204 191 189 191 185 186 188 188
235 259 247 250 253 255 259 251 256 264 256 274 277 282 282 282 280 273 263 249 238 231 226 225 224 228 231 231 223 227 224 229 232 229 224 202 209 217 229 209 207 200 192 190 195 191 188 188 186
205 223 271 259 248 251 251 259 254 263 260 264 268 275 278 277 275 277 260 242 236 232 228 228 227 231 235 241 222 222 224 225 227 224 216 215 219 228 226 214 201 198 199 197 200 194 191 188 189
258 276 277 255 237 241 246 254 243 257 263 251 264 268 269 272 278 273 272 246 237 232 228 229 229 231 236 241 228 215 218 216 220 224 219 228 230 224 211 208 195 199 198 199 199 196 195 192 188
269 259 264 238 219 249 209 249 278 280 265 255 260 260 266 275 279 271 268 250 243 233 227 230 229 232 233 232 217 212 213 213 216 221 225 226 219 210 217 203 202 202 197 196 205 197 194 193 192
207 256 226 282 264 283 240 290 306 305 307 290 269 270 270 273 278 269 259 247 245 234 228 229 230 231 228 218 209 209 209 213 217 224 226 227 223 218 216 207 207 203 199 199 202 198 199 193 193
201 218 232 254 299 305 292 285 288 297 296 278 279 276 276 279 272 270 265 255 248 236 227 228 229 226 221 209 207 209 215 216 219 222 224 227 228 223 216 215 207 201 206 203 199 199 198 199 195
271 274 269 270 268 294 283 282 286 282 277 282 278 274 275 272 271 269 264 261 252 232 225 224 222 222 218 207 207 214 221 223 226 226 230 231 231 226 223 210 203 211 214 206 200 199 199 195 192
249 268 278 281 257 294 293 286 285 275 275 274 275 267 264 271 266 264 263 258 253 231 222 221 220 221 220 211 216 216 215 217 220 232 237 243 244 225 222 224 213 218 215 208 202 199 195 196 194
244 247 266 279 308 290 289 288 274 260 253 255 256 257 263 263 261 257 255 255 245 226 219 218 218 216 216 211 209 215 210 215 218 221 235 255 253 224 213 211 212 206 201 200 202 200 200 192 192
264 237 254 281 306 288 11 292 283 279 266 246 244 251 260 264 253 250 254 248 240 221 214 215 214 213 210 206 212 213 210 208 210 205 226 249 210 216 219 211 208 194 198 201 202 202 203 205 200
233 228 239 263 268 292 260 261 319 292 270 262 253 247 249 263 264 254 248 238 223 212 211 211 209 210 206 206 216 210 213 211 208 205 197 178 202 175 170 215 213 203 205 202 205 203 205 210 209
148 231 259 248 257 256 239 219 282 279 324 321 327 280 312 300 287 254 231 219 210 206 210 209 204 207 206 204 211 208 210 206 201 196 197 194 186 185 185 182 184 181 184 201 211 210 213 213 213
181 164 292 240 193 260 95 178 259 329 358 4 357 350 338 331 309 244 217 205 206 207 208 206 201 202 204 202 197 201 200 201 202 201 205 206 203 210 204 198 205 201 201 193 211 210 213 214 216
181 188 221 247 233 300 200 233 181 28 17 11 15 0 340 334 320 260 230 213 207 203 204 201 195 198 202 197 189 193 194 189 200 207 218 226 222 224 236 206 206 202 197 194 202 210 218 218 222
139 199 263 298 233 268 241 260 191 14 18 10 7 6 352 344 327 288 235 218 205 201 200 192 193 196 197 192 184 188 194 194 195 201 210 223 231 228 221 236 235 217 208 210 206 205 207 214 225
163 141 187 171 245 240 256 258 331 19 9 0 2 4 355 350 350 343 210 211 199 192 187 197 194 192 191 189 185 187 191 193 199 203 205 208 210 214 217 217 217 221 208 214 213 216 216 213 220
166 207 226 237 236 270 297 277 93 54 28 8 5 0 356 357 3 16 139 158 181 182 184 193 187 185 185 184 187 189 190 188 190 199 200 195 205 208 210 213 209 210 216 216 214 220 225 223 226
179 190 203 217 204 236 269 270 143 90 39 20 19 8 2 3 28 59 114 136 162 177 180 176 175 178 180 177 181 184 182 187 188 190 193 204 204 206 212 216 219 219 231 223 224 225 234 234 231